Alice, TX

6:04 PM CST on December 04, 2016 (GMT -0600)
Alice International

Weather History for KALI - December, 2012

Change the Weather History Date:

Thursday, December 20, 2012

  Actual Average Record
Temperature  
Mean Temperature 57 °F -  
Max Temperature 72 °F 65 °F 84 °F (2010)
Min Temperature 39 °F 42 °F 33 °F (2000)
Degree Days  
Heating Degree Days 8    
Growing Degree Days 7 (Base 50)    
Moisture  
Dew Point 21 °F    
Average Humidity 28    
Maximum Humidity 93    
Minimum Humidity 10    
Precipitation  
Precipitation 0.00 in - - ()
Sea Level Pressure  
Sea Level Pressure 30.21 in    
Wind  
Wind Speed 18 mph (NNW)    
Max Wind Speed 29 mph    
Max Gust Speed 41 mph    
Visibility 9 miles    
Events      
Averages and records for this station are not official NWS values.
T = Trace of Precipitation, MM = Missing Value Source: NWS Daily Summary

Daily Weather History Graph

Daily Weather History Graph

Search for Another Location

Airport or City:

Trip Planner

Search our weather history database for the weather conditions in past years. The results will help you decide how hot, cold, wet, or windy it might be!

Date:

Astronomy

Dec. 20, 2012 Rise Set
Actual Time 7:18 AM CST 5:41 PM CST
Civil Twilight 6:52 AM CST 6:07 PM CST
Nautical Twilight 6:23 AM CST 6:36 PM CST
Astronomical Twilight 5:54 AM CST 7:05 PM CST
Moon 12:36 PM CST (12/20) 12:33 AM CST (12/20)
Length of Visible Light 11h 14m
Length of Day
10h 23m
First Quarter, 55% of the Moon is Illuminated
Dec 20
First Quarter
Dec 28
Full
Jan 4
Last Quarter
Jan 11
New
Jan 18
First Quarter

Hourly Weather History & Observations

Time (CST) Temp. Windchill Dew Point Humidity Pressure Visibility Wind Dir Wind Speed Gust Speed Precip Events Conditions
12:53 AM 66.9 °F - 64.9 °F 93% 29.79 in 5.0 mi SW 6.9 mph - N/A   Clear
1:33 AM 68.0 °F - 64.4 °F 88% 29.87 in 4.0 mi NW 25.3 mph 31.1 mph N/A   Partly Cloudy
1:53 AM 72.0 °F - 66.9 °F 84% 29.86 in 9.0 mi WNW 16.1 mph - N/A   Partly Cloudy
2:15 AM 71.6 °F - 57.2 °F 60% 29.89 in 10.0 mi NNW 24.2 mph 32.2 mph N/A   Mostly Cloudy
2:38 AM 71.6 °F - 44.6 °F 38% 29.91 in 7.0 mi NNW 27.6 mph 34.5 mph N/A   Overcast
2:53 AM 71.1 °F - 39.0 °F 31% 29.92 in 6.0 mi North 21.9 mph 34.5 mph N/A   Haze
3:27 AM 69.8 °F - 33.8 °F 27% 29.95 in 7.0 mi NNW 19.6 mph 32.2 mph N/A   Overcast
3:53 AM 68.0 °F - 27.0 °F 21% 29.98 in 6.0 mi NNW 19.6 mph 28.8 mph N/A   Haze
4:07 AM 68.0 °F - 26.6 °F 21% 30.00 in 6.0 mi North 20.7 mph 27.6 mph N/A   Haze
4:53 AM 64.9 °F - 16.0 °F 15% 30.04 in 7.0 mi North 23.0 mph 32.2 mph N/A   Overcast
5:53 AM 63.0 °F - 15.1 °F 16% 30.12 in 7.0 mi North 27.6 mph 38.0 mph N/A   Overcast
6:37 AM 60.8 °F - 15.8 °F 17% 30.18 in 9.0 mi NNW 23.0 mph 39.1 mph N/A   Overcast
6:53 AM 59.0 °F - 16.0 °F 19% 30.18 in 10.0 mi NNW 23.0 mph 32.2 mph N/A   Overcast
7:53 AM 57.0 °F - 16.0 °F 20% 30.27 in 10.0 mi North 19.6 mph 35.7 mph N/A   Scattered Clouds
8:53 AM 54.0 °F - 16.0 °F 22% 30.33 in 10.0 mi North 23.0 mph 32.2 mph N/A   Clear
9:53 AM 55.9 °F - 17.1 °F 22% 30.38 in 10.0 mi North 21.9 mph 32.2 mph N/A   Clear
10:53 AM 57.0 °F - 14.0 °F 18% 30.40 in 10.0 mi North 27.6 mph 41.4 mph N/A   Clear
11:53 AM 57.9 °F - 12.9 °F 17% 30.40 in 10.0 mi North 23.0 mph 34.5 mph N/A   Clear
12:53 PM 60.1 °F - 10.0 °F 14% 30.38 in 10.0 mi North 28.8 mph 40.3 mph N/A   Clear
1:53 PM 62.1 °F - 8.1 °F 12% 30.36 in 10.0 mi NNW 27.6 mph 34.5 mph N/A   Clear
2:53 PM 60.1 °F - 5.0 °F 11% 30.36 in 10.0 mi North 25.3 mph 32.2 mph N/A   Clear
3:53 PM 62.1 °F - 3.9 °F 10% 30.36 in 10.0 mi NNW 20.7 mph 28.8 mph N/A   Clear
4:53 PM 60.1 °F - 1.9 °F 10% 30.36 in 10.0 mi North 19.6 mph 28.8 mph N/A   Clear
5:53 PM 57.0 °F - 1.9 °F 11% 30.38 in 10.0 mi North 11.5 mph - N/A   Clear
6:53 PM 53.1 °F - 3.9 °F 14% 30.41 in 10.0 mi North 6.9 mph - N/A   Clear
7:53 PM 50.0 °F - 3.9 °F 15% 30.43 in 10.0 mi NNW 4.6 mph - N/A   Clear
8:53 PM 46.9 °F - 8.1 °F 21% 30.46 in 10.0 mi WNW 4.6 mph - N/A   Clear
9:53 PM 44.1 °F 40.8 °F 10.0 °F 25% 30.48 in 10.0 mi NW 5.8 mph - N/A   Clear
10:53 PM 42.1 °F 36.6 °F 10.0 °F 27% 30.49 in 10.0 mi NW 9.2 mph - N/A   Clear
11:53 PM 39.9 °F 35.1 °F 10.9 °F 31% 30.49 in 10.0 mi NW 6.9 mph - N/A   Clear